Powrót do katalogu

STARLINK-34564

AktywnyŁącznośćSSO
NORAD 64852·PAYLOAD·🇺🇸 United States

Wystrzelony Jul 19, 2025 z Vandenberg Space Force Base

Loading…

Następne Przeloty (najbliższe 24 godziny)

TLE

ŚwieżeSource: CelesTrak SupGP

Epoka: Sep 14, 2026, 20:33 UTC

1 64852C 25152L   26257.85673611  .00018604  00000+0  57738-3 0  2577
2 64852  97.2841 108.5538 0001788  95.7616 244.4510 15.33435702    10

Śledź STARLINK-34564 w czasie rzeczywistym z AllMySat

Download on the App Store